Regional Weather Roundup
Issued by NWS

Home | Current Version | Previous Version | Text Only | Print | Product List | Glossary On
Versions: 1 2 3 4 5 6 7 8 9 10 11 12 13 14 15 16 17 18 19 20 21 22 23 24 25 26 27 28 29 30 31 32 33 34 35 36 37 38 39 40 41 42 43 44 45 46 47 48 49 50
000
ASUS44 KFWD 060110
RWRTX
NORTH TEXAS HOURLY WEATHER ROUNDUP
NATIONAL WEATHER SERVICE FORT WORTH TX
800 PM CDT THU MAY 05 2016

NOTE: "FAIR" INDICATES FEW OR NO CLOUDS BELOW 12,000 FEET WITH NO
SIGNIFICANT WEATHER AND/OR OBSTRUCTIONS TO VISIBILITY.

TXZ118-119-060200-
DALLAS/FORT WORTH METROPLEX

CITY           SKY/WX    TMP DP  RH WIND       PRES   REMARKS
DFW AIRPORT    PTCLDY    74  46  36 N7        29.98S
DALLAS LOVE    MOCLDY    77  45  32 NW8       29.98S
FTW MEACHAM    CLEAR     77  48  35 N7        29.98S
DAL-EXECUTIVE  CLEAR     72  48  42 NW6       29.98R
FTW-ALLIANCE   MOCLDY    75  50  41 NE5       29.99S
FTW-NAS-JRB    CLEAR     79  49  34 NE5       29.99S
FTW-SPINKS     CLEAR     74  52  45 NE3       30.00S
ARLINGTON      CLEAR     76  50  40 N7        29.99R
ADDISON        CLEAR     81  46  30 N8        29.99S
MESQUITE       CLEAR     73  48  40 N5        29.99R
LANCASTER      CLEAR     77  42  28 E6        29.99R
$$

TXZ091>094-102>105-117-120-121-131>134-060200-
NORTH CENTRAL TEXAS

CITY           SKY/WX    TMP DP  RH WIND       PRES   REMARKS
SHRMAN/DENISON CLEAR     71  45  38 CALM      30.00S
GAINESVILLE    CLEAR     73  50  43 CALM      30.02R
BOWIE          CLEAR     74  48  40 CALM      30.01S
BRIDGEPORT     PTCLDY    75  51  43 CALM      30.02S
DECATUR        CLEAR     75  46  35 CALM      30.01R
DENTON         CLEAR     75  48  38 N3        29.99R
MCKINNEY       CLEAR     73  49  42 N3        29.99R
GREENVILLE     CLEAR     72  52  49 CALM      29.99S
TERRELL        CLEAR     74  46  36 N6        29.99R
WAXAHACHIE     CLEAR     71  51  49 N6        30.00R
CLEBURNE       CLEAR     75  52  43 CALM      30.01R
GRANBURY       CLEAR     78  52  39 CALM      30.01R
$$

TXZ083>090-098>101-113>116-127>130-139>142-154-155-060200-
WESTERN NORTH TEXAS

CITY           SKY/WX    TMP DP  RH WIND       PRES   REMARKS
WICHITA FALLS  PTCLDY    75  49  39 E6        30.00S
WF-KICKAPOO    HAZE      78  46  31 E5        30.02S VSB<1/4
VERNON         CLEAR     78  45  30 E8        30.01S
ABILENE        CLEAR     77  53  43 E7        30.03R
ABILENE-DYESS  CLEAR     78  54  42 SE9       30.01R
BRECKENRIDGE   CLEAR     80  50  35 E6        30.01R
GRAHAM         CLEAR     78  55  44 CALM      30.00R
MINERAL WELLS  CLEAR     76  49  38 NE7       29.99R
STEPHENVILLE   CLOUDY    77  50  38 CALM      30.04R
COMANCHE       CLEAR     75  58  56 E5        30.02S
BROWNWOOD      CLOUDY    75  57  53 E5        30.02R
COLEMAN        CLOUDY    76  56  50 E3        30.03R
$$

TXZ143>147-156>162-174-175-060200-
CENTRAL TEXAS

CITY           SKY/WX    TMP DP  RH WIND       PRES   REMARKS
WACO           CLEAR     73  52  47 N5        29.98S
WACO-TSTC      CLEAR     73  50  43 CALM      29.98R
WACO-MCGREGOR  CLEAR     76  57  51 N3        29.99R
HILLSBORO      CLEAR     74  51  44 NE3       29.99R
CORSICANA      CLEAR     75  50  41 NE3       29.99R
HEARNE         CLOUDY    74  56  54 CALM      29.98S
TEMPLE         CLOUDY    75  57  53 NE5       29.99R
KILLEEN        CLOUDY    76  58  52 N2        29.99R
KILLEEN-SKYLRK CLOUDY    76  58  53 NE3       29.99S
FORT HOOD      CLOUDY    78  55  45 NE3       29.97S
GATESVILLE     CLOUDY    75  55  50 MISG      30.02R
HAMILTON       CLEAR     78  54  43 CALM      30.02S
LAMPASAS       CLOUDY    76  62  62 CALM      30.01R
$$

TXZ095>097-106>112-122>126-135>138-148>153-164>167-060200-
EAST TEXAS

CITY           SKY/WX    TMP DP  RH WIND       PRES   REMARKS
PARIS          CLEAR     72  46  40 N6        29.99R
SULPHUR SPRNGS CLEAR     72  54  53 NW3       30.00S
MOUNT PLEASANT CLEAR     73  47  39 W3        29.99R
GILMER         CLEAR     70  48  46 CALM      29.98R
MINEOLA        CLEAR     70  55  60 CALM      29.99S
TYLER          CLEAR     74  47  38 N5        29.98R
LONGVIEW       CLEAR     68  51  54 NW5       29.96R
MARSHALL       CLEAR     68  53  59 CALM      29.98S
ATHENS         CLEAR     72  48  43 CALM      29.97R
PALESTINE      CLEAR     72  51  47 N5        29.98S
JACKSONVILLE   CLEAR     72  46  38 CALM      30.00R
HENDERSON      CLEAR     70  47  44 CALM      29.98R
CENTER         FAIR      71  51  49 N3        29.96R
NACOGDOCHES    CLEAR     68  52  56 CALM      29.96R
LUFKIN         CLEAR     70  50  49 CALM      29.95S
$$

SUPPLEMENTAL OBSERVATIONS (CENTRAL)

CITY           SKY/WX    TMP DP  RH WIND       PRES   REMARKS
CADDO GRASSLND   N/A     70  55  60 CALM        N/A
PAT MAYSE LAKE   N/A     72  41  33 N6          N/A
GREENVILLE       N/A     73  48  40 NW1         N/A
CEDAR HILL       N/A     72  50  46 CALM        N/A
MCGREGOR         N/A     73  55  53 CALM        N/A
$$

SUPPLEMENTAL OBSERVATIONS (WEST)

CITY           SKY/WX    TMP DP  RH WIND       PRES   REMARKS
MILLERS CREEK    N/A     79  55  44 E6          N/A
LBJ GRASSLAND    N/A     77  52  41 NE2         N/A
HAMBY            N/A     77  52  41 SE6         N/A
$$

SUPPLEMENTAL OBSERVATIONS (EAST)

CITY           SKY/WX    TMP DP  RH WIND       PRES   REMARKS
CLARKSVILLE      N/A     72  48  43 NW3         N/A
TEXARKANA        N/A     66  52  59 CALM        N/A
LINDEN           N/A     70  50  49 CALM        N/A
GILMER           N/A     72  50  46 W1          N/A
HENDERSON        N/A     70  46  43 N3          N/A
LUFKIN           N/A     70  54  56 MISG        N/A
N SABINE NF      N/A     66  54  63 MISG        N/A
S SABINE NF      N/A     64  55  72 CALM        N/A
$$

SUPPLEMENTAL OBSERVATIONS ARE A COLLECTION OF AUTOMATED INSTRUMENTS
THAT ARE MAINTAINED BY A VARIETY OF FEDERAL AND STATE AGENCIES.
CERTAIN ELEMENTS...SUCH AS HUMIDITY VALUES AND SUSTAINED WIND
SPEEDS...MAY BE APPROXIMATED.





USA.gov is the U.S. government's official web portal to all federal, state and local government web resources and services.